User: anonymous   Login
Location: Unspecified
(0.0000°N, 0.0000°E)
Time: 11:30:43
(UTC+00:00)
Language:

COSMOS 2507 - Orbit

View from above orbital plane
View from above orbital plane
View from above satellite
View from above satellite

Ground track
Ground track

The orbit data is extracted from the following two-line orbital elements,

1 40920U 15050A   19049.75907876 +.00000010 +00000-0 -29814-5 0  9999
2 40920 082.4952 305.2138 0010094 058.7809 301.4254 12.42891680154527
Epoch (UTC): 18 February 2019 18:13:04
Eccentricity: 0.0010094
inclination: 82.4952°
perigee height: 1486 km
apogee height: 1502 km
right ascension of ascending node: 305.2138°
argument of perigee: 58.7809°
revolutions per day: 12.42891680
mean anomaly at epoch: 301.4254°
orbit number at epoch: 15452

The dashed part of the orbit path shows where the satellite is in the earth's shadow,  

DLR